| time (UTC) | temp F | wind direction | speed knots | gust knots | rain 1hr in | rain 24hr in | rain mn in | humidity % | barometer mb |
| 20260510151026 | 55 | 37 | 1.7 | 4.3 | 0.00 | 0.00 | 0.00 | 64 | 1021.9 |
| 20260510150524 | 55 | 31 | 1.7 | 4.3 | 0.00 | 0.00 | 0.00 | 65 | 1022.0 |
| 20260510150046 | 54 | 67 | 1.7 | 4.3 | 0.00 | 0.00 | 0.00 | 66 | 1022.1 |
| 20260510145530 | 53 | 60 | 1.7 | 6.1 | 0.00 | 0.00 | 0.00 | 66 | 1022.1 |
| 20260510145026 | 53 | 69 | 2.6 | 6.1 | 0.00 | 0.00 | 0.00 | 68 | 1022.2 |
| 20260510144554 | 53 | 35 | 1.7 | 5.2 | 0.00 | 0.00 | 0.00 | 66 | 1022.1 |
| 20260510144027 | 53 | 33 | 1.7 | 5.2 | 0.00 | 0.00 | 0.00 | 68 | 1022.1 |
| 20260510143524 | 53 | 58 | 1.7 | 5.2 | 0.00 | 0.00 | 0.00 | 68 | 1022.2 |
| 20260510143037 | 52 | 82 | 0.0 | 2.6 | 0.00 | 0.00 | 0.00 | 70 | 1022.1 |
| 20260510142529 | 52 | 61 | 0.9 | 2.6 | 0.00 | 0.00 | 0.00 | 70 | 1022.2 |
| 20260510142027 | 51 | 0 | 0.0 | 0.0 | 0.00 | 0.00 | 0.00 | 70 | 1022.1 |
| 20260510141536 | 51 | 0 | 0.0 | 0.0 | 0.00 | 0.00 | 0.00 | 71 | 1022.3 |
| 20260510141028 | 50 | 0 | 0.0 | 0.0 | 0.00 | 0.00 | 0.00 | 71 | 1022.2 |
| 20260510140527 | 50 | 0 | 0.0 | 0.0 | 0.00 | 0.00 | 0.00 | 72 | 1022.2 |
| 20260510140037 | 50 | 0 | 0.0 | 0.0 | 0.00 | 0.00 | 0.00 | 73 | 1022.3 |
| 20260510135527 | 50 | 0 | 0.0 | 0.0 | 0.00 | 0.00 | 0.00 | 73 | 1022.3 |
| 20260510135026 | 50 | 0 | 0.0 | 0.0 | 0.00 | 0.00 | 0.00 | 74 | 1022.3 |
| 20260510134552 | 49 | 0 | 0.0 | 0.0 | 0.00 | 0.00 | 0.00 | 75 | 1022.4 |
| 20260510134026 | 48 | 0 | 0.0 | 0.0 | 0.00 | 0.00 | 0.00 | 78 | 1022.4 |
| 20260510133527 | 47 | 0 | 0.0 | 0.0 | 0.00 | 0.00 | 0.00 | 82 | 1022.4 |
| 20260510133038 | 46 | 0 | 0.0 | 0.0 | 0.00 | 0.00 | 0.00 | 85 | 1022.3 |
| 20260510132526 | 44 | 0 | 0.0 | 0.0 | 0.00 | 0.00 | 0.00 | 87 | 1022.4 |
| 20260510132026 | 43 | 0 | 0.0 | 0.0 | 0.00 | 0.00 | 0.00 | 89 | 1022.3 |
| 20260510131536 | 42 | 0 | 0.0 | 0.0 | 0.00 | 0.00 | 0.00 | 89 | 1022.3 |
| 20260510131026 | 41 | 0 | 0.0 | 0.0 | 0.00 | 0.00 | 0.00 | 90 | 1022.2 |
| 20260510130525 | 41 | 0 | 0.0 | 0.0 | 0.00 | 0.00 | 0.00 | 90 | 1022.2 |
| 20260510130037 | 40 | 0 | 0.0 | 0.0 | 0.00 | 0.00 | 0.00 | 89 | 1022.2 |
| 20260510125523 | 40 | 0 | 0.0 | 0.0 | 0.00 | 0.00 | 0.00 | 90 | 1022.1 |
| 20260510125024 | 39 | 0 | 0.0 | 0.0 | 0.00 | 0.00 | 0.00 | 90 | 1022.1 |
| 20260510124538 | 39 | 0 | 0.0 | 0.0 | 0.00 | 0.00 | 0.00 | 90 | 1022.1 |
| 20260510124024 | 39 | 0 | 0.0 | 0.0 | 0.00 | 0.00 | 0.00 | 90 | 1022.1 |
| 20260510123524 | 38 | 0 | 0.0 | 0.0 | 0.00 | 0.00 | 0.00 | 90 | 1022.0 |
| 20260510123037 | 38 | 0 | 0.0 | 0.0 | 0.00 | 0.00 | 0.00 | 89 | 1022.0 |
| 20260510122524 | 38 | 0 | 0.0 | 0.0 | 0.00 | 0.00 | 0.00 | 89 | 1021.9 |
| 20260510122026 | 38 | 0 | 0.0 | 0.0 | 0.00 | 0.00 | 0.00 | 90 | 1021.8 |
| 20260510121537 | 38 | 0 | 0.0 | 0.0 | 0.00 | 0.00 | 0.00 | 90 | 1021.8 |
| 20260510121025 | 38 | 0 | 0.0 | 0.0 | 0.00 | 0.00 | 0.00 | 89 | 1021.8 |
| 20260510120527 | 38 | 0 | 0.0 | 0.0 | 0.00 | 0.00 | 0.00 | 89 | 1021.8 |
| 20260510120037 | 38 | 0 | 0.0 | 0.0 | 0.00 | 0.00 | 0.00 | 90 | 1021.7 |
| 20260510115526 | 38 | 0 | 0.0 | 0.0 | 0.00 | 0.01 | 0.00 | 89 | 1021.8 |
| 20260510115027 | 38 | 0 | 0.0 | 0.0 | 0.00 | 0.01 | 0.00 | 89 | 1021.9 |
| 20260510114537 | 38 | 0 | 0.0 | 0.0 | 0.00 | 0.01 | 0.00 | 89 | 1021.9 |
| 20260510114024 | 38 | 0 | 0.0 | 0.0 | 0.00 | 0.01 | 0.00 | 88 | 1021.8 |
| 20260510113523 | 38 | 0 | 0.0 | 0.0 | 0.00 | 0.01 | 0.00 | 88 | 1021.7 |
| 20260510113041 | 38 | 0 | 0.0 | 0.0 | 0.00 | 0.01 | 0.00 | 88 | 1021.7 |
| 20260510112523 | 38 | 0 | 0.0 | 0.9 | 0.00 | 0.01 | 0.00 | 88 | 1021.8 |
| 20260510112023 | 38 | 0 | 0.0 | 0.9 | 0.00 | 0.01 | 0.00 | 88 | 1021.8 |
| 20260510111539 | 38 | 0 | 0.0 | 0.9 | 0.00 | 0.01 | 0.00 | 88 | 1021.7 |
| 20260510111023 | 38 | 0 | 0.0 | 2.6 | 0.00 | 0.01 | 0.00 | 87 | 1021.8 |
| 20260510110527 | 38 | 0 | 0.9 | 2.6 | 0.00 | 0.01 | 0.00 | 87 | 1021.7 |
| 20260510110040 | 39 | 342 | 0.9 | 2.6 | 0.00 | 0.01 | 0.00 | 87 | 1021.8 |
| 20260510105526 | 39 | 0 | 0.0 | 0.0 | 0.00 | 0.05 | 0.00 | 87 | 1021.8 |
| 20260510105024 | 39 | 0 | 0.0 | 0.0 | 0.00 | 0.05 | 0.00 | 87 | 1021.7 |
| 20260510104537 | 39 | 0 | 0.0 | 0.9 | 0.00 | 0.05 | 0.00 | 87 | 1021.8 |
| 20260510104027 | 39 | 0 | 0.0 | 1.7 | 0.00 | 0.05 | 0.00 | 87 | 1021.7 |
| 20260510103523 | 39 | 0 | 0.0 | 1.7 | 0.00 | 0.05 | 0.00 | 86 | 1021.7 |
| 20260510103043 | 39 | 213 | 0.9 | 1.7 | 0.00 | 0.05 | 0.00 | 86 | 1021.7 |
| 20260510102530 | 40 | 271 | 0.0 | 1.7 | 0.00 | 0.05 | 0.00 | 86 | 1021.7 |
| 20260510102028 | 40 | 271 | 0.0 | 2.6 | 0.00 | 0.05 | 0.00 | 86 | 1021.7 |
| 20260510101537 | 40 | 0 | 0.9 | 2.6 | 0.00 | 0.05 | 0.00 | 86 | 1021.7 |
| 20260510101023 | 40 | 285 | 0.9 | 1.7 | 0.00 | 0.05 | 0.00 | 86 | 1021.7 |
| 20260510100526 | 40 | 285 | 0.0 | 1.7 | 0.00 | 0.05 | 0.00 | 86 | 1021.7 |
| 20260510100047 | 40 | 338 | 0.0 | 0.9 | 0.00 | 0.05 | 0.00 | 86 | 1021.8 |
| 20260510095523 | 40 | 0 | 0.0 | 0.0 | 0.00 | 0.05 | 0.00 | 86 | 1021.7 |
| 20260510095024 | 41 | 0 | 0.0 | 0.0 | 0.00 | 0.05 | 0.00 | 86 | 1021.7 |
| 20260510094544 | 41 | 0 | 0.0 | 0.0 | 0.00 | 0.05 | 0.00 | 86 | 1021.7 |
| 20260510094024 | 41 | 0 | 0.0 | 0.0 | 0.00 | 0.05 | 0.00 | 86 | 1021.6 |
| 20260510093524 | 41 | 0 | 0.0 | 0.0 | 0.00 | 0.05 | 0.00 | 85 | 1021.6 |
| 20260510093036 | 41 | 0 | 0.0 | 0.0 | 0.00 | 0.05 | 0.00 | 84 | 1021.5 |
| 20260510092525 | 41 | 0 | 0.0 | 0.0 | 0.00 | 0.05 | 0.00 | 84 | 1021.6 |
| 20260510092026 | 41 | 0 | 0.0 | 0.0 | 0.00 | 0.05 | 0.00 | 84 | 1021.6 |
| 20260510091536 | 41 | 0 | 0.0 | 0.0 | 0.00 | 0.05 | 0.00 | 83 | 1021.4 |
| 20260510091025 | 42 | 0 | 0.0 | 0.0 | 0.00 | 0.05 | 0.00 | 82 | 1021.5 |
| 20260510090523 | 42 | 0 | 0.0 | 1.7 | 0.00 | 0.05 | 0.00 | 82 | 1021.5 |
| 20260510090040 | 42 | 0 | 0.0 | 2.6 | 0.00 | 0.05 | 0.00 | 81 | 1021.5 |
| 20260510085527 | 42 | 338 | 0.9 | 2.6 | 0.00 | 0.05 | 0.00 | 81 | 1021.6 |
| 20260510085026 | 43 | 338 | 0.9 | 2.6 | 0.00 | 0.05 | 0.00 | 79 | 1021.5 |
| 20260510084552 | 43 | 198 | 0.0 | 2.6 | 0.00 | 0.05 | 0.00 | 79 | 1021.5 |
| 20260510084023 | 44 | 0 | 0.0 | 2.6 | 0.00 | 0.05 | 0.00 | 80 | 1021.5 |
| 20260510083527 | 44 | 198 | 0.9 | 3.5 | 0.00 | 0.05 | 0.00 | 80 | 1021.5 |
| 20260510083041 | 44 | 212 | 0.9 | 3.5 | 0.00 | 0.05 | 0.00 | 80 | 1021.5 |
| 20260510082524 | 44 | 212 | 0.9 | 4.3 | 0.00 | 0.05 | 0.00 | 80 | 1021.5 |
| 20260510082024 | 44 | 209 | 1.7 | 4.3 | 0.00 | 0.05 | 0.00 | 80 | 1021.4 |
| 20260510081537 | 44 | 204 | 1.7 | 4.3 | 0.00 | 0.05 | 0.00 | 79 | 1021.5 |
| 20260510081024 | 45 | 203 | 1.7 | 4.3 | 0.00 | 0.05 | 0.00 | 79 | 1021.4 |
| 20260510080530 | 45 | 191 | 1.7 | 3.5 | 0.00 | 0.05 | 0.00 | 78 | 1021.3 |
| 20260510080036 | 45 | 191 | 1.7 | 3.5 | 0.00 | 0.05 | 0.00 | 79 | 1021.4 |
| 20260510075527 | 45 | 188 | 0.0 | 2.6 | 0.00 | 0.05 | 0.00 | 79 | 1021.3 |
| 20260510075023 | 45 | 0 | 0.0 | 2.6 | 0.00 | 0.05 | 0.00 | 79 | 1021.3 |
| 20260510074537 | 45 | 188 | 1.7 | 2.6 | 0.00 | 0.05 | 0.00 | 79 | 1021.3 |
| 20260510074025 | 45 | 188 | 0.9 | 2.6 | 0.00 | 0.05 | 0.00 | 79 | 1021.4 |
| 20260510073523 | 45 | 179 | 0.9 | 3.5 | 0.00 | 0.05 | 0.00 | 79 | 1021.4 |
| 20260510073047 | 45 | 179 | 1.7 | 3.5 | 0.00 | 0.05 | 0.00 | 79 | 1021.3 |
| 20260510072523 | 45 | 162 | 0.9 | 2.6 | 0.00 | 0.05 | 0.00 | 80 | 1021.4 |
| 20260510072026 | 45 | 0 | 0.0 | 0.9 | 0.00 | 0.05 | 0.00 | 80 | 1021.3 |
| 20260510071548 | 45 | 0 | 0.0 | 2.6 | 0.00 | 0.05 | 0.00 | 80 | 1021.2 |
| 20260510071023 | 46 | 0 | 0.0 | 2.6 | 0.00 | 0.05 | 0.00 | 79 | 1021.3 |
| 20260510070523 | 46 | 240 | 0.9 | 2.6 | 0.00 | 0.05 | 0.00 | 78 | 1021.3 |
| 20260510070041 | 46 | 241 | 0.0 | 1.7 | 0.00 | 0.05 | 0.00 | 78 | 1021.2 |
| 20260510065524 | 46 | 0 | 0.0 | 0.0 | 0.00 | 0.05 | 0.00 | 78 | 1021.3 |
| 20260510065026 | 47 | 0 | 0.0 | 0.0 | 0.00 | 0.05 | 0.00 | 77 | 1021.1 |
| 20260510064545 | 47 | 0 | 0.0 | 0.9 | 0.00 | 0.05 | 0.00 | 77 | 1021.1 |
| 20260510064025 | 47 | 0 | 0.0 | 2.6 | 0.00 | 0.05 | 0.00 | 77 | 1021.0 |
| 20260510063528 | 47 | 241 | 0.0 | 2.6 | 0.00 | 0.05 | 0.00 | 77 | 1021.0 |
| 20260510063038 | 47 | 241 | 0.9 | 2.6 | 0.00 | 0.05 | 0.00 | 76 | 1020.9 |
| 20260510062525 | 48 | 241 | 0.9 | 2.6 | 0.00 | 0.05 | 0.00 | 75 | 1020.9 |
| 20260510062028 | 48 | 241 | 0.0 | 2.6 | 0.00 | 0.05 | 0.00 | 75 | 1020.9 |
| 20260510061538 | 48 | 236 | 0.0 | 2.6 | 0.00 | 0.05 | 0.00 | 74 | 1020.9 |
| 20260510061024 | 48 | 0 | 0.0 | 3.5 | 0.00 | 0.05 | 0.00 | 74 | 1020.8 |
| 20260510060525 | 49 | 239 | 0.9 | 3.5 | 0.00 | 0.05 | 0.00 | 75 | 1020.9 |
| 20260510060046 | 48 | 215 | 0.9 | 3.5 | 0.00 | 0.05 | 0.00 | 74 | 1020.9 |
| 20260510055524 | 49 | 231 | 0.9 | 1.7 | 0.00 | 0.05 | 0.05 | 74 | 1020.7 |
| 20260510055024 | 49 | 230 | 0.0 | 1.7 | 0.00 | 0.05 | 0.05 | 73 | 1020.8 |
| 20260510054537 | 49 | 230 | 0.0 | 2.6 | 0.00 | 0.05 | 0.05 | 72 | 1020.8 |
| 20260510054025 | 50 | 230 | 0.0 | 2.6 | 0.00 | 0.05 | 0.05 | 71 | 1020.8 |
| 20260510053525 | 50 | 230 | 0.0 | 2.6 | 0.00 | 0.05 | 0.05 | 71 | 1020.8 |
| 20260510053041 | 51 | 230 | 0.9 | 5.2 | 0.00 | 0.05 | 0.05 | 70 | 1020.8 |
| 20260510052524 | 51 | 233 | 1.7 | 5.2 | 0.00 | 0.05 | 0.05 | 70 | 1020.8 |
| 20260510052024 | 51 | 246 | 0.9 | 2.6 | 0.00 | 0.05 | 0.05 | 69 | 1020.8 |
| 20260510051542 | 51 | 238 | 0.9 | 2.6 | 0.00 | 0.05 | 0.05 | 70 | 1020.7 |
| 20260510051024 | 51 | 224 | 0.9 | 3.5 | 0.00 | 0.05 | 0.05 | 69 | 1020.7 |
| 20260510050524 | 51 | 202 | 0.9 | 3.5 | 0.00 | 0.05 | 0.05 | 70 | 1020.6 |
| 20260510050040 | 51 | 229 | 0.9 | 2.6 | 0.00 | 0.05 | 0.05 | 69 | 1020.7 |
| 20260510045524 | 52 | 219 | 0.9 | 2.6 | 0.00 | 0.05 | 0.05 | 69 | 1020.7 |
| 20260510045026 | 52 | 219 | 0.9 | 2.6 | 0.00 | 0.05 | 0.05 | 68 | 1020.6 |
| 20260510044540 | 52 | 257 | 0.0 | 2.6 | 0.00 | 0.05 | 0.05 | 68 | 1020.6 |
| 20260510044026 | 52 | 257 | 0.9 | 2.6 | 0.00 | 0.05 | 0.05 | 68 | 1020.6 |
| 20260510043526 | 52 | 80 | 0.0 | 1.7 | 0.00 | 0.05 | 0.05 | 68 | 1020.6 |
| 20260510043044 | 53 | 0 | 0.0 | 1.7 | 0.00 | 0.05 | 0.05 | 67 | 1020.6 |
| 20260510042524 | 53 | 79 | 0.0 | 1.7 | 0.00 | 0.05 | 0.05 | 66 | 1020.6 |
| 20260510042026 | 53 | 93 | 0.9 | 2.6 | 0.00 | 0.05 | 0.05 | 66 | 1020.6 |
| 20260510041549 | 53 | 93 | 0.0 | 2.6 | 0.00 | 0.05 | 0.05 | 65 | 1020.5 |
| 20260510041025 | 53 | 105 | 0.9 | 2.6 | 0.00 | 0.05 | 0.05 | 65 | 1020.4 |
| 20260510040527 | 52 | 0 | 0.0 | 1.7 | 0.00 | 0.05 | 0.05 | 66 | 1020.4 |
| 20260510040036 | 52 | 0 | 0.0 | 1.7 | 0.00 | 0.05 | 0.05 | 66 | 1020.5 |
| 20260510035528 | 52 | 106 | 0.9 | 3.5 | 0.00 | 0.05 | 0.05 | 67 | 1020.4 |
| 20260510035026 | 53 | 106 | 0.9 | 3.5 | 0.00 | 0.05 | 0.05 | 67 | 1020.4 |
| 20260510034540 | 53 | 106 | 0.0 | 2.6 | 0.00 | 0.05 | 0.05 | 67 | 1020.2 |
| 20260510034027 | 53 | 0 | 0.0 | 2.6 | 0.00 | 0.05 | 0.05 | 64 | 1020.3 |
| 20260510033524 | 54 | 0 | 0.0 | 5.2 | 0.00 | 0.05 | 0.05 | 64 | 1020.1 |
| 20260510033037 | 54 | 44 | 1.7 | 5.2 | 0.00 | 0.05 | 0.05 | 63 | 1020.0 |
| 20260510032523 | 55 | 40 | 2.6 | 7.0 | 0.00 | 0.05 | 0.05 | 62 | 1019.9 |
| 20260510032023 | 55 | 29 | 2.6 | 7.0 | 0.00 | 0.05 | 0.05 | 62 | 1019.8 |
| 20260510031537 | 55 | 41 | 3.5 | 7.0 | 0.00 | 0.05 | 0.05 | 62 | 1019.8 |
| 20260510031024 | 55 | 25 | 1.7 | 7.8 | 0.00 | 0.05 | 0.05 | 62 | 1019.8 |
| 20260510030527 | 55 | 78 | 1.7 | 7.8 | 0.00 | 0.05 | 0.05 | 61 | 1019.7 |
| 20260510030037 | 55 | 30 | 1.7 | 6.1 | 0.00 | 0.05 | 0.05 | 62 | 1019.7 |
| 20260510025523 | 55 | 66 | 2.6 | 6.1 | 0.00 | 0.06 | 0.05 | 62 | 1019.5 |
| 20260510025026 | 55 | 63 | 2.6 | 7.0 | 0.00 | 0.06 | 0.05 | 62 | 1019.4 |
| 20260510024547 | 55 | 30 | 2.6 | 7.0 | 0.00 | 0.06 | 0.05 | 62 | 1019.4 |
| 20260510024026 | 56 | 49 | 3.5 | 7.8 | 0.00 | 0.06 | 0.05 | 61 | 1019.3 |
| 20260510023523 | 56 | 35 | 4.3 | 7.8 | 0.00 | 0.06 | 0.05 | 61 | 1019.2 |
| 20260510023037 | 56 | 54 | 3.5 | 7.8 | 0.00 | 0.06 | 0.05 | 61 | 1019.2 |
| 20260510022526 | 56 | 72 | 3.5 | 7.8 | 0.00 | 0.06 | 0.05 | 61 | 1019.0 |
| 20260510022023 | 57 | 35 | 3.5 | 11.3 | 0.00 | 0.06 | 0.05 | 61 | 1018.9 |
| 20260510021537 | 57 | 31 | 4.3 | 11.3 | 0.00 | 0.06 | 0.05 | 60 | 1019.0 |
| 20260510021022 | 57 | 27 | 5.2 | 10.4 | 0.00 | 0.06 | 0.05 | 59 | 1018.9 |
| 20260510020522 | 58 | 33 | 5.2 | 10.4 | 0.00 | 0.06 | 0.05 | 58 | 1018.8 |
| 20260510020049 | 59 | 37 | 4.3 | 8.7 | 0.00 | 0.06 | 0.05 | 57 | 1018.7 |
| 20260510015523 | 59 | 52 | 5.2 | 8.7 | 0.00 | 0.06 | 0.05 | 57 | 1018.6 |
| 20260510015023 | 59 | 11 | 4.3 | 7.8 | 0.00 | 0.06 | 0.05 | 56 | 1018.5 |
| 20260510014538 | 60 | 46 | 3.5 | 10.4 | 0.00 | 0.06 | 0.05 | 54 | 1018.5 |
| 20260510014023 | 61 | 25 | 1.7 | 10.4 | 0.00 | 0.06 | 0.05 | 53 | 1018.5 |
| 20260510013523 | 61 | 91 | 6.1 | 9.6 | 0.00 | 0.06 | 0.05 | 52 | 1018.5 |
| 20260510013046 | 62 | 32 | 5.2 | 9.6 | 0.00 | 0.06 | 0.05 | 49 | 1018.4 |
| 20260510012523 | 63 | 15 | 3.5 | 10.4 | 0.00 | 0.06 | 0.05 | 42 | 1018.2 |
| 20260510012023 | 63 | 328 | 4.3 | 10.4 | 0.00 | 0.06 | 0.05 | 40 | 1018.0 |
| 20260510011539 | 63 | 15 | 5.2 | 10.4 | 0.00 | 0.06 | 0.05 | 41 | 1018.2 |
| 20260510011022 | 63 | 360 | 2.6 | 10.4 | 0.00 | 0.06 | 0.05 | 44 | 1018.2 |
| 20260510010522 | 63 | 11 | 2.6 | 10.4 | 0.00 | 0.06 | 0.05 | 48 | 1018.0 |
| 20260510010055 | 64 | 63 | 5.2 | 12.2 | 0.00 | 0.06 | 0.05 | 47 | 1018.0 |
| 20260510005527 | 64 | 1 | 4.3 | 12.2 | 0.00 | 0.06 | 0.05 | 42 | 1018.1 |
| 20260510005022 | 64 | 40 | 4.3 | 10.4 | 0.00 | 0.06 | 0.05 | 44 | 1018.0 |
| 20260510004536 | 64 | 22 | 6.1 | 11.3 | 0.00 | 0.06 | 0.05 | 44 | 1017.8 |
| 20260510004027 | 64 | 340 | 5.2 | 12.2 | 0.00 | 0.06 | 0.05 | 41 | 1017.9 |
| 20260510003525 | 63 | 336 | 6.1 | 12.2 | 0.00 | 0.06 | 0.05 | 41 | 1017.9 |
| 20260510003038 | 64 | 307 | 5.2 | 13.9 | 0.00 | 0.06 | 0.05 | 41 | 1017.8 |
| 20260510002523 | 64 | 341 | 7.0 | 13.9 | 0.00 | 0.06 | 0.05 | 42 | 1017.9 |
| 20260510002023 | 64 | 359 | 6.1 | 13.9 | 0.00 | 0.06 | 0.05 | 41 | 1017.7 |
| 20260510001538 | 63 | 348 | 5.2 | 13.0 | 0.00 | 0.06 | 0.05 | 44 | 1017.8 |
| 20260510001025 | 62 | 348 | 5.2 | 13.0 | 0.00 | 0.06 | 0.05 | 44 | 1017.7 |
| 20260510000528 | 63 | 352 | 6.1 | 11.3 | 0.00 | 0.06 | 0.05 | 43 | 1017.7 |
| 20260510000041 | 62 | 336 | 6.1 | 11.3 | 0.00 | 0.06 | 0.05 | 44 | 1017.7 |
| 20260509235524 | 62 | 335 | 6.1 | 17.4 | 0.00 | 0.06 | 0.05 | 45 | 1017.7 |
| 20260509235023 | 62 | 324 | 7.8 | 17.4 | 0.00 | 0.06 | 0.05 | 44 | 1017.6 |
| 20260509234559 | 62 | 302 | 4.3 | 16.5 | 0.00 | 0.06 | 0.05 | 45 | 1017.6 |
| 20260509234027 | 62 | 12 | 5.2 | 16.5 | 0.00 | 0.06 | 0.05 | 44 | 1017.6 |
| 20260509233523 | 62 | 350 | 6.1 | 15.6 | 0.00 | 0.06 | 0.05 | 45 | 1017.4 |
| 20260509233040 | 62 | 37 | 7.0 | 15.6 | 0.00 | 0.06 | 0.05 | 44 | 1017.6 |
| 20260509232526 | 63 | 334 | 5.2 | 14.8 | 0.00 | 0.06 | 0.05 | 46 | 1017.6 |
| 20260509232023 | 63 | 360 | 7.0 | 14.8 | 0.00 | 0.06 | 0.05 | 44 | 1017.5 |
| 20260509231537 | 64 | 353 | 5.2 | 14.8 | 0.00 | 0.06 | 0.05 | 43 | 1017.6 |
| 20260509231023 | 64 | 319 | 6.1 | 13.9 | 0.00 | 0.06 | 0.05 | 44 | 1017.6 |
| 20260509230528 | 64 | 3 | 7.0 | 13.9 | 0.00 | 0.06 | 0.05 | 43 | 1017.5 |
| 20260509230045 | 64 | 340 | 5.2 | 14.8 | 0.00 | 0.06 | 0.05 | 44 | 1017.6 |
| 20260509225523 | 64 | 354 | 6.1 | 14.8 | 0.00 | 0.06 | 0.05 | 45 | 1017.5 |
| 20260509225026 | 63 | 25 | 4.3 | 12.2 | 0.00 | 0.06 | 0.05 | 48 | 1017.6 |
| 20260509224536 | 63 | 10 | 4.3 | 11.3 | 0.00 | 0.06 | 0.05 | 46 | 1017.6 |
| 20260509224023 | 63 | 42 | 4.3 | 13.9 | 0.00 | 0.06 | 0.05 | 47 | 1017.5 |
| 20260509223527 | 63 | 27 | 5.2 | 15.6 | 0.00 | 0.06 | 0.05 | 47 | 1017.2 |
| 20260509223036 | 62 | 33 | 7.0 | 15.6 | 0.00 | 0.06 | 0.05 | 47 | 1017.3 |
| 20260509222527 | 62 | 32 | 7.8 | 14.8 | 0.00 | 0.06 | 0.05 | 46 | 1017.3 |
| 20260509222023 | 62 | 72 | 7.8 | 14.8 | 0.00 | 0.06 | 0.05 | 46 | 1017.2 |
| 20260509221600 | 62 | 84 | 8.7 | 15.6 | 0.00 | 0.06 | 0.05 | 45 | 1017.1 |
| 20260509221024 | 62 | 29 | 8.7 | 15.6 | 0.00 | 0.06 | 0.05 | 47 | 1017.1 |
| 20260509220523 | 62 | 30 | 7.0 | 15.6 | 0.00 | 0.06 | 0.05 | 46 | 1017.2 |
| 20260509220037 | 63 | 26 | 7.0 | 13.9 | 0.00 | 0.06 | 0.05 | 43 | 1017.2 |
| 20260509215524 | 63 | 1 | 6.1 | 13.0 | 0.00 | 0.06 | 0.05 | 43 | 1017.3 |
| 20260509215023 | 63 | 51 | 7.0 | 13.0 | 0.00 | 0.06 | 0.05 | 42 | 1017.1 |
| 20260509214539 | 63 | 35 | 6.1 | 13.0 | 0.00 | 0.06 | 0.05 | 41 | 1017.1 |
| 20260509214022 | 63 | 11 | 6.1 | 13.0 | 0.00 | 0.06 | 0.05 | 40 | 1017.1 |
| 20260509213526 | 63 | 355 | 4.3 | 13.0 | 0.00 | 0.06 | 0.05 | 42 | 1017.2 |
| 20260509213040 | 62 | 20 | 6.1 | 12.2 | 0.00 | 0.06 | 0.05 | 41 | 1017.2 |
| 20260509212528 | 62 | 1 | 7.0 | 13.9 | 0.00 | 0.06 | 0.05 | 45 | 1017.2 |
| 20260509212023 | 62 | 16 | 7.0 | 14.8 | 0.00 | 0.06 | 0.05 | 44 | 1017.1 |
| 20260509211537 | 62 | 66 | 7.8 | 14.8 | 0.00 | 0.06 | 0.05 | 47 | 1017.1 |
| 20260509211023 | 61 | 44 | 6.1 | 16.5 | 0.00 | 0.06 | 0.05 | 47 | 1017.2 |
| 20260509210523 | 61 | 31 | 8.7 | 16.5 | 0.00 | 0.06 | 0.05 | 47 | 1017.4 |
| 20260509210037 | 62 | 25 | 10.4 | 16.5 | 0.00 | 0.06 | 0.05 | 46 | 1017.3 |
| 20260509205522 | 65 | 28 | 6.1 | 13.0 | 0.00 | 0.06 | 0.05 | 43 | 1017.3 |
| 20260509205022 | 65 | 356 | 5.2 | 13.0 | 0.00 | 0.06 | 0.05 | 35 | 1017.3 |
| 20260509204536 | 65 | 343 | 5.2 | 14.8 | 0.00 | 0.06 | 0.05 | 37 | 1017.2 |
| 20260509204023 | 65 | 342 | 7.0 | 14.8 | 0.00 | 0.06 | 0.05 | 35 | 1017.1 |
| 20260509203525 | 66 | 278 | 4.3 | 10.4 | 0.00 | 0.06 | 0.05 | 34 | 1017.1 |
| 20260509203041 | 65 | 342 | 3.5 | 13.0 | 0.00 | 0.06 | 0.05 | 39 | 1017.0 |
| 20260509202525 | 65 | 289 | 5.2 | 13.0 | 0.00 | 0.06 | 0.05 | 38 | 1017.1 |
| 20260509202023 | 65 | 47 | 6.1 | 10.4 | 0.00 | 0.06 | 0.05 | 35 | 1017.0 |
| 20260509201541 | 65 | 38 | 5.2 | 11.3 | 0.00 | 0.06 | 0.05 | 35 | 1017.0 |
| 20260509201027 | 65 | 318 | 3.5 | 11.3 | 0.00 | 0.06 | 0.05 | 36 | 1017.0 |
| 20260509200525 | 65 | 347 | 6.1 | 12.2 | 0.00 | 0.06 | 0.05 | 35 | 1017.0 |
| 20260509200042 | 65 | 319 | 5.2 | 12.2 | 0.00 | 0.06 | 0.05 | 35 | 1017.0 |
| 20260509195523 | 65 | 321 | 6.1 | 14.8 | 0.00 | 0.06 | 0.05 | 38 | 1017.0 |
| 20260509195026 | 64 | 6 | 7.0 | 14.8 | 0.00 | 0.06 | 0.05 | 35 | 1016.9 |
| 20260509194543 | 64 | 359 | 6.1 | 13.9 | 0.00 | 0.06 | 0.05 | 38 | 1016.8 |
| 20260509194023 | 64 | 26 | 7.8 | 13.9 | 0.00 | 0.06 | 0.05 | 40 | 1016.8 |
| 20260509193526 | 64 | 334 | 7.0 | 13.9 | 0.00 | 0.06 | 0.05 | 36 | 1016.6 |
| 20260509193044 | 65 | 24 | 7.0 | 13.9 | 0.00 | 0.06 | 0.05 | 36 | 1016.5 |
| 20260509192524 | 65 | 359 | 7.0 | 13.9 | 0.00 | 0.06 | 0.05 | 35 | 1016.4 |
| 20260509192036 | 65 | 8 | 7.0 | 13.0 | 0.00 | 0.06 | 0.05 | 33 | 1016.5 |
| 20260509191543 | 65 | 311 | 3.5 | 13.0 | 0.00 | 0.06 | 0.05 | 34 | 1016.4 |
| 20260509191028 | 65 | 331 | 5.2 | 13.9 | 0.00 | 0.06 | 0.05 | 32 | 1016.4 |
| 20260509190530 | 64 | 293 | 6.1 | 13.9 | 0.00 | 0.06 | 0.05 | 31 | 1016.4 |
| 20260509190047 | 64 | 305 | 4.3 | 13.0 | 0.00 | 0.06 | 0.05 | 35 | 1016.4 |
| 20260509185525 | 64 | 280 | 6.1 | 13.9 | 0.00 | 0.06 | 0.05 | 36 | 1016.6 |
| 20260509185023 | 64 | 360 | 6.1 | 14.8 | 0.00 | 0.06 | 0.05 | 37 | 1016.7 |
| 20260509184540 | 64 | 357 | 6.1 | 14.8 | 0.00 | 0.06 | 0.05 | 36 | 1016.6 |
| 20260509184022 | 63 | 46 | 5.2 | 10.4 | 0.00 | 0.06 | 0.05 | 35 | 1016.6 |
| 20260509183524 | 63 | 328 | 4.3 | 9.6 | 0.00 | 0.06 | 0.05 | 35 | 1016.7 |
| 20260509183041 | 63 | 359 | 4.3 | 14.8 | 0.00 | 0.06 | 0.05 | 34 | 1016.7 |
| 20260509182523 | 63 | 345 | 5.2 | 14.8 | 0.00 | 0.06 | 0.05 | 38 | 1016.7 |
| 20260509182022 | 63 | 359 | 4.3 | 11.3 | 0.00 | 0.06 | 0.05 | 37 | 1016.7 |
| 20260509181536 | 63 | 321 | 3.5 | 11.3 | 0.00 | 0.06 | 0.05 | 38 | 1016.8 |
| 20260509181026 | 63 | 2 | 4.3 | 10.4 | 0.00 | 0.06 | 0.05 | 43 | 1016.7 |
| 20260509180524 | 62 | 358 | 3.5 | 10.4 | 0.00 | 0.06 | 0.05 | 42 | 1016.8 |
| 20260509180037 | 62 | 328 | 5.2 | 11.3 | 0.00 | 0.06 | 0.05 | 46 | 1016.8 |
| 20260509175522 | 61 | 324 | 4.3 | 11.3 | 0.00 | 0.06 | 0.05 | 49 | 1017.0 |
| 20260509175027 | 60 | 15 | 4.3 | 9.6 | 0.00 | 0.06 | 0.05 | 49 | 1017.0 |
| 20260509174537 | 59 | 338 | 3.5 | 9.6 | 0.00 | 0.06 | 0.05 | 48 | 1017.1 |
| 20260509174023 | 59 | 332 | 3.5 | 9.6 | 0.00 | 0.06 | 0.05 | 48 | 1017.1 |
| 20260509173523 | 59 | 337 | 5.2 | 8.7 | 0.00 | 0.06 | 0.05 | 49 | 1017.1 |
| 20260509173051 | 59 | 318 | 3.5 | 8.7 | 0.00 | 0.06 | 0.05 | 47 | 1017.0 |
| 20260509172523 | 60 | 323 | 1.7 | 9.6 | 0.00 | 0.06 | 0.05 | 48 | 1017.1 |
| 20260509172026 | 60 | 322 | 4.3 | 9.6 | 0.00 | 0.06 | 0.05 | 48 | 1017.0 |
| 20260509171546 | 59 | 349 | 5.2 | 9.6 | 0.00 | 0.06 | 0.05 | 48 | 1017.1 |
| 20260509171023 | 59 | 338 | 4.3 | 11.3 | 0.00 | 0.06 | 0.05 | 47 | 1017.1 |
| 20260509170523 | 59 | 345 | 5.2 | 12.2 | 0.00 | 0.06 | 0.05 | 47 | 1017.0 |
| 20260509170042 | 59 | 1 | 6.1 | 12.2 | 0.00 | 0.06 | 0.05 | 43 | 1017.0 |
| 20260509165526 | 59 | 328 | 5.2 | 10.4 | 0.00 | 0.06 | 0.05 | 44 | 1017.0 |
| 20260509165023 | 59 | 359 | 6.1 | 12.2 | 0.00 | 0.06 | 0.05 | 44 | 1017.0 |
| 20260509164546 | 59 | 328 | 6.1 | 12.2 | 0.00 | 0.06 | 0.05 | 45 | 1016.9 |
| 20260509164028 | 61 | 348 | 5.2 | 11.3 | 0.00 | 0.06 | 0.05 | 46 | 1016.7 |
| 20260509163524 | 61 | 339 | 4.3 | 13.0 | 0.00 | 0.06 | 0.05 | 50 | 1016.7 |
| 20260509163049 | 60 | 1 | 7.0 | 13.0 | 0.00 | 0.06 | 0.05 | 50 | 1016.9 |
| 20260509162524 | 60 | 297 | 5.2 | 12.2 | 0.00 | 0.06 | 0.05 | 50 | 1016.6 |
| 20260509162024 | 60 | 34 | 5.2 | 12.2 | 0.00 | 0.06 | 0.05 | 48 | 1016.6 |
| 20260509161537 | 59 | 326 | 4.3 | 12.2 | 0.00 | 0.06 | 0.05 | 54 | 1016.5 |
| 20260509161023 | 59 | 342 | 6.1 | 11.3 | 0.00 | 0.06 | 0.05 | 55 | 1016.4 |
| 20260509160523 | 58 | 307 | 2.6 | 7.0 | 0.00 | 0.06 | 0.05 | 60 | 1016.3 |
| 20260509160037 | 56 | 347 | 1.7 | 6.1 | 0.00 | 0.06 | 0.05 | 65 | 1016.4 |
| 20260509155522 | 55 | 334 | 0.9 | 3.5 | 0.00 | 0.06 | 0.05 | 68 | 1016.4 |
| 20260509155026 | 54 | 342 | 0.9 | 2.6 | 0.00 | 0.06 | 0.05 | 72 | 1016.4 |
| 20260509154537 | 54 | 0 | 0.0 | 4.3 | 0.00 | 0.06 | 0.05 | 71 | 1016.4 |
| 20260509154026 | 54 | 336 | 0.9 | 4.3 | 0.00 | 0.06 | 0.05 | 72 | 1016.6 |
| 20260509153528 | 54 | 347 | 1.7 | 3.5 | 0.00 | 0.06 | 0.05 | 71 | 1016.8 |
| 20260509153038 | 54 | 342 | 0.0 | 3.5 | 0.00 | 0.06 | 0.05 | 70 | 1016.9 |
| 20260509152526 | 54 | 211 | 0.9 | 3.5 | 0.00 | 0.06 | 0.05 | 69 | 1017.0 |
| 20260509152026 | 55 | 247 | 0.9 | 2.6 | 0.00 | 0.06 | 0.05 | 70 | 1017.0 |
| 20260509151537 | 55 | 286 | 0.9 | 7.8 | 0.00 | 0.06 | 0.05 | 70 | 1016.9 |